DW7589 Weather Reports


time (UTC)temp
F
wind
direction
speed
knots
gust
knots
rain 1hr
in
rain 24hr
in
rain mn
in
humidity
%
barometer
mb
20260508014420 63 0 0.0 0.0 0.01 0.01 0.01 86 1014.5
20260508013421 63 0 0.0 0.0 0.01 0.01 0.01 86 1014.7
20260508012920 63 0 0.0 0.0 0.01 0.01 0.01 86 1014.5
20260508011920 63 0 0.0 0.0 0.01 0.01 0.01 86 1014.7
20260508010920 64 0 0.0 0.0 0.01 0.01 0.01 84 1015.1
20260508010421 64 0 0.0 0.0 0.00 0.00 0.00 84 1014.8
20260508005921 64 0 0.0 0.0 0.00 0.00 0.00 83 1014.7
20260508005420 64 0 0.0 0.0 0.00 0.00 0.00 83 1015.1
20260508004921 64 0 0.0 0.0 0.00 0.00 0.00 83 1015.3
20260508004420 64 0 0.0 0.0 0.00 0.00 0.00 83 1015.2
20260508003921 64 0 0.0 0.0 0.00 0.00 0.00 83 1014.9
20260508003422 64 0 0.0 0.0 0.00 0.00 0.00 83 1014.9
20260508002922 64 0 0.0 0.0 0.00 0.00 0.00 82 1014.6
20260508002421 65 0 0.0 0.0 0.00 0.00 0.00 81 1014.6
20260508001921 65 0 0.0 0.0 0.00 0.00 0.00 81 1014.5
20260508000921 65 0 0.0 0.0 0.00 0.00 0.00 80 1014.9
20260508000420 65 0 0.0 0.0 0.00 0.00 0.00 80 1015.1
20260507235921 65 0 0.0 0.0 0.00 0.00 0.00 79 1014.9
20260507234421 66 0 0.0 0.0 0.00 0.00 0.00 76 1014.8
20260507233920 66 0 0.0 0.0 0.00 0.00 0.00 76 1015.3
20260507233421 66 0 0.0 0.0 0.00 0.00 0.00 75 1015.3
20260507232920 66 0 0.0 0.0 0.00 0.00 0.00 74 1015.7
20260507231920 66 0 0.0 0.0 0.00 0.00 0.00 73 1015.0
20260507231421 67 0 0.0 0.0 0.00 0.00 0.00 72 1014.7
20260507230920 67 0 0.0 0.0 0.00 0.00 0.00 71 1015.1
20260507230422 67 0 0.0 0.0 0.00 0.00 0.00 71 1014.9
20260507225920 67 0 0.0 0.0 0.00 0.00 0.00 70 1015.2
20260507225420 67 0 0.0 0.0 0.00 0.00 0.00 70 1015.7
20260507224921 67 0 0.0 0.0 0.00 0.00 0.00 68 1015.7
20260507224420 67 0 0.0 0.0 0.00 0.00 0.00 68 1016.2
20260507223921 67 0 0.0 0.0 0.00 0.00 0.00 67 1015.7
20260507223420 67 0 0.0 0.0 0.00 0.00 0.00 67 1015.9
20260507222922 68 0 0.0 0.0 0.00 0.00 0.00 67 1015.4
20260507221921 68 0 0.0 0.0 0.00 0.00 0.00 66 1015.4
20260507221420 68 0 0.0 0.0 0.00 0.00 0.00 65 1015.3
20260507220921 68 0 0.0 0.0 0.00 0.00 0.00 65 1015.5
20260507215921 68 0 0.0 0.0 0.00 0.00 0.00 64 1016.0
20260507215420 68 0 0.0 0.0 0.00 0.00 0.00 64 1015.7
20260507214921 68 0 0.0 0.0 0.00 0.00 0.00 63 1015.9
20260507214420 68 0 0.0 0.0 0.00 0.00 0.00 63 1016.4
20260507213921 68 0 0.0 0.0 0.00 0.00 0.00 64 1016.6
20260507213421 68 0 0.0 0.0 0.00 0.00 0.00 65 1016.9
20260507212921 68 0 0.0 0.0 0.00 0.00 0.00 64 1016.4
20260507212422 68 0 0.0 0.0 0.00 0.00 0.00 64 1015.1
20260507211921 68 0 0.0 0.0 0.00 0.00 0.00 66 1015.7
20260507211421 68 0 0.0 0.0 0.00 0.00 0.00 64 1015.5
20260507210920 68 0 0.0 0.0 0.00 0.00 0.00 64 1015.8
20260507210421 68 0 0.0 0.0 0.00 0.00 0.00 64 1015.7
20260507205921 69 0 0.0 0.0 0.00 0.00 0.00 64 1015.7
20260507205422 69 0 0.0 0.0 0.00 0.00 0.00 64 1016.2
20260507204921 69 0 0.0 0.0 0.00 0.00 0.00 62 1016.6
20260507204420 69 0 0.0 0.0 0.00 0.00 0.00 62 1016.3
20260507203420 69 0 0.0 0.0 0.00 0.00 0.00 63 1016.2
20260507202921 70 0 0.0 0.0 0.00 0.00 0.00 64 1016.6
20260507202421 69 0 0.0 0.0 0.00 0.00 0.00 63 1016.8
20260507201921 69 0 0.0 0.0 0.00 0.00 0.00 63 1016.5
20260507201421 69 0 0.0 0.0 0.00 0.00 0.00 63 1016.8
20260507200921 69 0 0.0 0.0 0.00 0.00 0.00 62 1016.9
20260507200421 69 0 0.0 0.0 0.00 0.00 0.00 65 1016.9
20260507195921 69 0 0.0 0.0 0.00 0.00 0.00 63 1016.9
20260507195421 69 0 0.0 0.0 0.00 0.00 0.00 63 1017.1
20260507194922 69 0 0.0 0.0 0.00 0.00 0.00 62 1017.0
20260507194421 69 0 0.0 0.0 0.00 0.00 0.00 61 1017.1
20260507193422 69 0 0.0 0.0 0.00 0.00 0.00 62 1017.4
20260507192921 69 0 0.0 0.0 0.00 0.00 0.00 63 1017.2
20260507192420 69 0 0.0 0.0 0.00 0.00 0.00 64 1017.1
20260507191921 69 0 0.0 0.0 0.00 0.00 0.00 65 1017.0
20260507191421 68 0 0.0 0.0 0.00 0.00 0.00 66 1017.3
20260507190920 68 0 0.0 0.0 0.00 0.00 0.00 67 1017.5
20260507190421 68 0 0.0 0.0 0.00 0.00 0.00 67 1017.4
20260507185921 68 0 0.0 0.0 0.00 0.00 0.00 65 1017.4
20260507185421 68 0 0.0 0.0 0.00 0.00 0.00 65 1017.5
20260507184920 68 0 0.0 0.0 0.00 0.00 0.00 67 1017.1
20260507184421 68 0 0.0 0.0 0.00 0.00 0.00 66 1017.3
20260507183920 68 0 0.0 0.0 0.00 0.00 0.00 70 1017.4
20260507183420 67 0 0.0 0.0 0.00 0.00 0.00 68 1017.6
20260507182921 66 0 0.0 0.0 0.00 0.00 0.00 71 1017.5
20260507181920 66 0 0.0 0.0 0.00 0.00 0.00 67 1017.7
20260507181421 66 0 0.0 0.0 0.00 0.00 0.00 69 1017.8
20260507180922 66 0 0.0 0.0 0.00 0.00 0.00 68 1017.7
20260507180421 66 0 0.0 0.0 0.00 0.00 0.00 67 1018.1
20260507175921 66 0 0.0 0.0 0.00 0.00 0.00 68 1018.2
20260507175421 66 0 0.0 0.0 0.00 0.00 0.00 69 1018.3
20260507173921 66 0 0.0 0.0 0.00 0.00 0.00 70 1018.9
20260507173421 65 0 0.0 0.0 0.00 0.00 0.00 69 1018.9
20260507172922 65 0 0.0 0.0 0.00 0.00 0.00 72 1018.7
20260507172421 65 0 0.0 0.0 0.00 0.00 0.00 71 1018.4
20260507171921 64 0 0.0 0.0 0.00 0.00 0.00 70 1018.5
20260507171421 64 0 0.0 0.0 0.00 0.00 0.00 70 1018.7
20260507170922 64 0 0.0 0.0 0.00 0.00 0.00 70 1018.5
20260507170421 64 0 0.0 0.0 0.00 0.00 0.00 71 1018.6
20260507165421 64 0 0.0 0.0 0.00 0.00 0.00 71 1018.7
20260507164421 64 0 0.0 0.0 0.00 0.00 0.00 71 1018.8
20260507163921 64 0 0.0 0.0 0.00 0.00 0.00 71 1018.6
20260507163421 64 0 0.0 0.0 0.00 0.00 0.00 72 1018.3
20260507162920 64 0 0.0 0.0 0.00 0.00 0.00 72 1018.5
20260507162421 63 0 0.0 0.0 0.00 0.00 0.00 72 1018.5
20260507161921 63 0 0.0 0.0 0.00 0.00 0.00 72 1018.6
20260507160921 63 0 0.0 0.0 0.00 0.00 0.00 71 1018.8
20260507160421 63 0 0.0 0.0 0.00 0.00 0.00 70 1018.7
20260507155921 63 0 0.0 0.0 0.00 0.01 0.00 72 1018.7
20260507154922 63 0 0.0 0.0 0.00 0.01 0.00 73 1019.1
20260507154421 62 0 0.0 0.0 0.00 0.01 0.00 73 1019.1
20260507153921 62 0 0.0 0.0 0.00 0.01 0.00 72 1019.2
20260507153421 62 0 0.0 0.0 0.00 0.01 0.00 73 1019.2
20260507152921 62 0 0.0 0.0 0.00 0.01 0.00 74 1019.1
20260507152422 62 0 0.0 0.0 0.00 0.01 0.00 75 1019.2
20260507151921 61 0 0.0 0.0 0.00 0.01 0.00 76 1018.9
20260507151423 60 0 0.0 0.0 0.00 0.01 0.00 76 1018.8
20260507150922 60 0 0.0 0.0 0.00 0.01 0.00 76 1018.6
20260507145922 60 0 0.0 0.0 0.00 0.01 0.00 77 1018.7
20260507145422 60 0 0.0 0.0 0.00 0.01 0.00 77 1018.9
20260507144921 60 0 0.0 0.0 0.00 0.01 0.00 78 1018.9
20260507144422 59 0 0.0 0.0 0.00 0.01 0.00 79 1018.8
20260507143921 59 0 0.0 0.0 0.00 0.01 0.00 78 1018.8
20260507143421 59 0 0.0 0.0 0.00 0.01 0.00 79 1018.9
20260507142921 59 0 0.0 0.0 0.00 0.01 0.00 80 1019.0
20260507142422 58 0 0.0 0.0 0.00 0.01 0.00 79 1019.1
20260507140923 58 0 0.0 0.0 0.00 0.01 0.00 81 1019.5
20260507140422 57 0 0.0 0.0 0.00 0.01 0.00 82 1019.4
20260507135921 57 0 0.0 0.0 0.00 0.01 0.00 82 1019.3
20260507135421 57 0 0.0 0.0 0.00 0.01 0.00 83 1019.4
20260507134422 57 0 0.0 0.0 0.00 0.01 0.00 84 1019.5
20260507133422 56 0 0.0 0.0 0.00 0.01 0.00 85 1019.6
20260507132923 56 0 0.0 0.0 0.00 0.01 0.00 85 1019.7
20260507132421 56 0 0.0 0.0 0.00 0.01 0.00 86 1019.6
20260507131922 56 0 0.0 0.0 0.00 0.01 0.00 86 1019.6
20260507131422 56 0 0.0 0.0 0.00 0.01 0.00 86 1019.5
20260507130921 56 0 0.0 0.0 0.00 0.01 0.00 86 1019.4
20260507130422 56 0 0.0 0.0 0.00 0.01 0.00 87 1019.4
20260507125921 56 0 0.0 0.0 0.00 0.01 0.00 87 1019.3
20260507125422 56 0 0.0 0.0 0.00 0.01 0.00 87 1019.4
20260507124922 56 0 0.0 0.0 0.00 0.01 0.00 87 1019.3
20260507124421 56 0 0.0 0.0 0.00 0.01 0.00 88 1019.2
20260507123922 56 0 0.0 0.0 0.00 0.01 0.00 88 1019.4
20260507123422 56 0 0.0 0.0 0.00 0.01 0.00 88 1019.5
20260507122921 56 0 0.0 0.0 0.00 0.01 0.00 88 1019.5
20260507122421 56 0 0.0 0.0 0.00 0.01 0.00 88 1019.4
20260507121423 56 0 0.0 0.0 0.00 0.01 0.00 88 1019.0
20260507120921 56 0 0.0 0.0 0.00 0.01 0.00 88 1018.6
20260507120422 56 0 0.0 0.0 0.00 0.01 0.00 88 1018.5
20260507115922 56 0 0.0 0.0 0.00 0.01 0.00 88 1018.6
20260507115421 56 0 0.0 0.0 0.00 0.01 0.00 88 1018.6
20260507114921 56 0 0.0 0.0 0.00 0.01 0.00 88 1018.7
20260507113921 56 0 0.0 0.0 0.00 0.01 0.00 87 1018.7
20260507113422 56 0 0.0 0.0 0.00 0.01 0.00 87 1018.6
20260507112921 56 0 0.0 0.0 0.00 0.01 0.00 87 1018.2
20260507112421 56 0 0.0 0.0 0.00 0.01 0.00 86 1018.2
20260507111921 57 0 0.0 0.0 0.00 0.01 0.00 86 1018.3
20260507111422 57 0 0.0 0.0 0.00 0.01 0.00 86 1018.4
20260507110921 57 0 0.0 0.0 0.00 0.01 0.00 86 1018.7
20260507110421 57 0 0.0 0.0 0.00 0.01 0.00 86 1018.8
20260507105422 57 0 0.0 0.0 0.00 0.01 0.00 87 1018.8
20260507104921 57 0 0.0 0.0 0.00 0.01 0.00 87 1018.9
20260507104422 57 0 0.0 0.0 0.00 0.01 0.00 87 1018.9
20260507103421 57 0 0.0 0.0 0.00 0.01 0.00 88 1018.5
20260507102923 57 0 0.0 0.0 0.00 0.01 0.00 88 1018.2
20260507102422 57 0 0.0 0.0 0.00 0.01 0.00 88 1018.1
20260507101921 57 0 0.0 0.0 0.00 0.01 0.00 88 1018.1
20260507101422 57 0 0.0 0.0 0.00 0.01 0.00 88 1018.2
20260507100923 58 0 0.0 0.0 0.00 0.01 0.00 88 1017.9
20260507100422 58 0 0.0 0.0 0.00 0.01 0.00 88 1018.0
20260507095923 58 0 0.0 0.0 0.00 0.01 0.00 88 1018.0
20260507095423 58 0 0.0 0.0 0.00 0.01 0.00 88 1017.9
20260507094921 58 0 0.0 0.0 0.00 0.01 0.00 88 1018.0
20260507093921 58 0 0.0 0.0 0.00 0.01 0.00 88 1017.6
20260507092921 58 0 0.0 0.0 0.00 0.01 0.00 88 1017.2
20260507092422 58 0 0.0 0.0 0.00 0.01 0.00 88 1017.0
20260507091921 58 0 0.0 0.0 0.00 0.01 0.00 88 1016.8
20260507091423 58 0 0.0 0.0 0.00 0.01 0.00 88 1016.7
20260507090922 58 0 0.0 0.0 0.00 0.01 0.00 88 1016.5
20260507090421 58 0 0.0 0.0 0.00 0.01 0.00 88 1016.5
20260507085923 58 0 0.0 0.0 0.00 0.01 0.00 88 1016.5
20260507085423 58 0 0.0 0.0 0.00 0.01 0.00 89 1016.3
20260507084921 58 0 0.0 0.0 0.00 0.01 0.00 89 1016.3
20260507084423 58 0 0.0 0.0 0.00 0.01 0.00 89 1016.2
20260507083921 58 0 0.0 0.0 0.00 0.01 0.00 89 1016.2
20260507083423 58 0 0.0 0.0 0.00 0.01 0.00 89 1016.1
20260507082922 58 0 0.0 0.0 0.00 0.01 0.00 89 1016.1
20260507082421 58 0 0.0 0.0 0.00 0.01 0.00 89 1016.0
20260507081922 58 0 0.0 0.0 0.00 0.01 0.00 89 1015.9
20260507080422 58 0 0.0 0.0 0.00 0.01 0.00 88 1015.8
20260507075422 58 0 0.0 0.0 0.00 0.01 0.00 88 1016.0
20260507074921 58 0 0.0 0.0 0.00 0.01 0.00 88 1016.0
20260507074422 58 0 0.0 0.0 0.00 0.01 0.00 88 1015.9
20260507073921 58 0 0.0 0.0 0.00 0.01 0.00 88 1015.8
20260507073422 58 0 0.0 0.0 0.00 0.01 0.00 88 1015.8
20260507072923 58 0 0.0 0.0 0.00 0.01 0.00 88 1015.7
20260507072422 58 0 0.0 0.0 0.00 0.01 0.00 88 1015.6
20260507071422 58 0 0.0 0.0 0.00 0.01 0.00 87 1015.6
20260507070422 58 0 0.0 0.0 0.00 0.01 0.00 87 1015.6
20260507065922 58 0 0.0 0.0 0.00 0.01 0.00 87 1015.6
20260507065421 58 0 0.0 0.0 0.00 0.01 0.00 87 1015.7
20260507064923 58 0 0.0 0.0 0.00 0.01 0.00 87 1015.7
20260507064421 58 0 0.0 0.0 0.00 0.01 0.00 87 1015.7
20260507063922 58 0 0.0 0.0 0.00 0.01 0.00 87 1015.8
20260507063422 58 0 0.0 0.0 0.00 0.01 0.00 87 1015.8
20260507062921 58 0 0.0 0.0 0.00 0.01 0.00 87 1015.8
20260507062422 58 0 0.0 0.0 0.00 0.01 0.00 87 1015.7
20260507061922 58 0 0.0 0.0 0.00 0.01 0.00 87 1015.9
20260507061422 58 0 0.0 0.0 0.00 0.01 0.00 87 1016.0
20260507060922 58 0 0.0 0.0 0.00 0.01 0.00 87 1015.9
20260507055922 58 0 0.0 0.0 0.00 0.01 0.00 87 1015.6
20260507055421 58 0 0.0 0.0 0.00 0.01 0.00 87 1015.6
20260507054923 59 0 0.0 0.0 0.00 0.01 0.00 87 1015.8
20260507054423 59 0 0.0 0.0 0.00 0.01 0.00 87 1015.8
20260507053922 59 0 0.0 0.0 0.00 0.01 0.00 87 1015.6
20260507053422 59 0 0.0 0.0 0.00 0.01 0.00 86 1015.7
20260507052922 59 0 0.0 0.0 0.00 0.01 0.00 86 1015.7
20260507052421 59 0 0.0 0.0 0.00 0.01 0.00 86 1015.8
20260507051922 59 0 0.0 0.0 0.00 0.01 0.00 86 1015.9
20260507051422 59 0 0.0 0.0 0.00 0.01 0.00 85 1016.0
20260507050921 59 0 0.0 0.0 0.00 0.01 0.00 86 1016.0
20260507050424 60 0 0.0 0.0 0.00 0.01 0.00 86 1016.0
20260507045422 60 0 0.0 0.0 0.00 0.01 0.01 85 1015.9
20260507044422 60 0 0.0 0.0 0.00 0.01 0.01 85 1015.9
20260507043921 60 0 0.0 0.0 0.00 0.01 0.01 84 1015.7
20260507043422 60 0 0.0 0.0 0.00 0.01 0.01 84 1015.8
20260507042921 60 0 0.0 0.0 0.00 0.01 0.01 84 1015.8
20260507042422 60 0 0.0 0.0 0.00 0.01 0.01 84 1015.9
20260507041922 60 0 0.0 0.0 0.00 0.01 0.01 84 1016.1
20260507041423 60 0 0.0 0.0 0.00 0.01 0.01 84 1016.0
20260507040922 60 0 0.0 0.0 0.00 0.01 0.01 84 1016.0
20260507040422 60 0 0.0 0.0 0.00 0.01 0.01 84 1016.1
20260507035922 61 0 0.0 0.0 0.00 0.01 0.01 84 1016.1
20260507035423 61 0 0.0 0.0 0.00 0.01 0.01 84 1016.3
20260507034922 61 0 0.0 0.0 0.00 0.01 0.01 83 1016.3
20260507033922 61 0 0.0 0.0 0.00 0.01 0.01 83 1016.2
20260507033423 61 0 0.0 0.0 0.00 0.01 0.01 83 1016.3
20260507032922 61 0 0.0 0.0 0.00 0.01 0.01 83 1016.2
20260507032422 61 0 0.0 0.0 0.00 0.01 0.01 83 1016.1
20260507031922 61 0 0.0 0.0 0.00 0.01 0.01 83 1016.0
20260507030922 61 0 0.0 0.0 0.00 0.01 0.01 83 1015.8
20260507030422 61 0 0.0 0.0 0.00 0.01 0.01 82 1015.8
20260507025422 61 0 0.0 0.0 0.00 0.01 0.01 82 1015.8
20260507024921 61 0 0.0 0.0 0.00 0.01 0.01 82 1015.7
20260507024422 61 0 0.0 0.0 0.00 0.01 0.01 82 1015.6
20260507023922 61 0 0.0 0.0 0.00 0.01 0.01 82 1015.4
20260507023422 61 0 0.0 0.0 0.00 0.01 0.01 82 1015.2
20260507022923 61 0 0.0 0.0 0.00 0.01 0.01 82 1015.3
20260507022422 61 0 0.0 0.0 0.00 0.01 0.01 82 1015.1
20260507021422 61 0 0.0 0.0 0.00 0.01 0.01 82 1014.8
20260507015922 61 0 0.0 0.0 0.00 0.01 0.01 82 1014.6
20260507014924 61 0 0.0 0.0 0.00 0.01 0.01 81 1014.5